This demonstration page uses our WeatherBlox Daily Observations layout. Learn more.

Left ArrowRight Arrow

41.86663, -103.66717

Hourly Observations for November 4, 2019

Temp ( °F °C ) Dew Point ( °F °C ) Humidity (%) Winds ( mph kmh ) Pressure ( in mb ) Visibility ( mi km ) Precip ( " mm )
12:46 am 00:46 Cloudy with Light Rain 37 3 37 3 100 100 W 5 7 30.11 1020 10 16 0.00 0.00
12:53 am 00:53 Cloudy with Light Rain 38 3.3 37 2.8 97 97 W 5 7 30.04 1017 10 16 0.03 0.76
1:00 am 01:00 Cloudy with Light Rain 38 3.3 37 2.8 97 97 W 5 7 30.11 1020 10 16 0.00 0.00
1:20 am 01:20 Cloudy with Light Rain 37 3 37 3 100 100 W 5 7 30.11 1020 10 16 0.00 0.00
1:53 am 01:53 Cloudy with Light Rain 38 3.3 36 2.2 93 93 WNW 3 6 30.04 1017 10 16 0.01 0.25
2:53 am 02:53 Cloudy 37 2.8 36 2.2 96 96 WNW 3 6 30.04 1017 10 16 0.00 0.00
3:53 am 03:53 Cloudy with Light Rain 37 2.8 36 2.2 96 96 NW 3 6 30.06 1018 10 16 0.00 0.00
4:53 am 04:53 Cloudy 37 2.8 36 2.2 96 96 WNW 3 6 30.08 1019 10 16 0.01 0.25
5:36 am 05:36 Cloudy with Light Rain 37 2.8 36 2.2 96 96 N 3 6 30.14 1021 10 16 0.00 0.00
5:53 am 05:53 Cloudy with Light Rain 37 2.8 36 2.2 96 96 NNW 5 7 30.09 1019 10 16 0.00 0.00
6:53 am 06:53 Cloudy 37 2.8 36 2.2 96 96 NW 3 6 30.11 1020 10 16 0.00 0.00
7:53 am 07:53 Cloudy with Light Rain 37 2.8 36 2.2 96 96 Calm 30.14 1021 10 16 0.00 0.00
8:53 am 08:53 Cloudy 38 3.3 36 2.2 93 93 NNW 6 9 30.16 1021 10 16 0.00 0.00
9:37 am 09:37 Cloudy with Light Rain 38 3.3 35 1.7 89 89 N 7 11 30.19 1022 10 16 0.00 0.00
9:46 am 09:46 Cloudy with Light Rain 37 3 36 2 93 93 NNE 6 9 30.19 1022 10 16 0.00 0.00
9:53 am 09:53 Cloudy 38 3.3 35 1.7 89 89 N 6 9 30.16 1021 10 16 0.00 0.00
10:29 am 10:29 Cloudy 39 3.9 35 1.7 86 86 N 5 7 30.19 1022 10 16 0.00 0.00
10:53 am 10:53 Cloudy with Light Rain 39 3.9 35 1.7 86 86 Calm 30.15 1021 10 16 0.00 0.00
11:34 am 11:34 Cloudy with Light Rain 38 3.3 36 2.2 93 93 E 5 7 30.18 1022 9 14 0.01 0.25
11:42 am 11:42 Cloudy with Light Rain 37 3 36 2 93 93 Calm 30.19 1022 9 14 0.00 0.00
11:53 am 11:53 Cloudy with Light Rain 38 3.3 35 1.7 89 89 ENE 3 6 30.15 1021 10 16 0.01 0.25
12:11 pm 12:11 Cloudy with Light Rain 38 3.3 35 1.7 89 89 ENE 5 7 30.18 1022 10 16 0.00 0.00
12:30 pm 12:30 Cloudy with Light Rain 38 3.3 36 2.2 93 93 ENE 5 7 30.18 1022 6 10 0.01 0.25
12:53 pm 12:53 Cloudy with Light Rain 38 3.3 36 2.2 93 93 E 3 6 30.15 1021 10 16 0.01 0.25
1:26 pm 13:26 Cloudy 39 3.9 35 1.7 86 86 SE 3 6 30.16 1021 10 16 0.00 0.00
1:53 pm 13:53 Cloudy 39 3.9 36 2.2 89 89 Calm 30.14 1021 10 16 0.00 0.00
2:03 pm 14:03 Cloudy 39 3.9 36 2.2 89 89 SE 3 6 30.16 1021 10 16 0.00 0.00
2:14 pm 14:14 Cloudy 39 4 36 2 87 87 SE 5 7 30.15 1021 10 16 0.00 0.00
2:37 pm 14:37 Cloudy 40 4.4 36 2.2 86 86 SE 3 6 30.14 1021 10 16 0.00 0.00
2:53 pm 14:53 Cloudy 40 4.4 36 2.2 86 86 Calm 30.14 1021 10 16 0.00 0.00
3:53 pm 15:53 Cloudy 40 4.4 35 1.7 83 83 E 3 6 30.16 1021 10 16 0.00 0.00
4:53 pm 16:53 Cloudy 39 3.9 36 2.2 89 89 Calm 30.18 1022 10 16 0.00 0.00
5:25 pm 17:25 Cloudy 38 3.3 36 2.2 93 93 SE 6 9 30.20 1023 10 16 0.00 0.00
5:53 pm 17:53 Cloudy 37 2.8 36 2.2 96 96 SSE 6 9 30.19 1022 10 16 0.00 0.00
6:53 pm 18:53 Cloudy 37 2.8 35 1.7 93 93 SSE 5 7 30.20 1023 10 16 0.00 0.00
7:53 pm 19:53 Cloudy 36 2.2 35 1.7 97 97 S 3 6 30.22 1023 10 16 0.00 0.00
8:53 pm 20:53 Cloudy 36 2.2 35 1.7 97 97 Calm 30.22 1023 10 16 0.00 0.00
9:53 pm 21:53 Cloudy 35 1.7 35 1.7 100 100 Calm 30.23 1024 9 14 0.00 0.00
10:53 pm 22:53 Cloudy 36 2.2 35 1.7 97 97 ENE 5 7 30.23 1024 10 16 0.00 0.00
11:53 pm 23:53 Cloudy 36 2.2 35 1.7 97 97 SE 6 9 30.22 1023 10 16 0.00 0.00

Powered by AerisWeather